Погода в Кличеве

Погода в Кличеве : погода сейчас, прогноз погоды и архив. Всё, что Вы хотите узнать о погоде в Кличеве!

Хотите узнать прогноз погоды в Кличеве? Тогда Вам сюда: Погода в Кличеве

Поиск расширенной информации на нашем сайте:

Другие новости

Новости СМИ2

Главная страница сайта

Новости сайта

03.07.2017

Напоминаем, что на нашем специализированном сайте Метеоцентр.Азия вы можете получить высокодетализированные автоматические прогнозы погоды по пунктам России, СНГ и мира в авиационном формате (включающие направление и скорость ветра, видимость, явления погоды, количество и форму облачности, нижнюю и верхнюю границу облачности).


Погода в Кличеве - сегодня

Время (UTC), дата Ветер
(°,м/с) 
Видим.   Явления Облачность Т
(°С)
Тd
(°С)
f(%) Тe
(°С)
Pmin
(гПа)
dP
(гПа)
Po
(мм)
O2
(г/м3)
Тmin Tmax R s Состояние
почвы
18 11.11.18 140 (ЮВ) 4{12}  10 км    10/10 400 м 
[Frnb]
+2.5 +0.9 89 1032.8  0.7  760  303    +3.1       
00 12.11.18 140 (ЮВ) 5-10{13}  10 км    10/10 400 м 
[Frnb]
+0.8 -1.3 86 -2  1033.9  0.1  761  306           
06 12.11.18 150 (ЮВ) 4{11}  4000 м  дымка  10/10 400 м 
[Frnb]
+0.6 -0.3 94 -2  1035.5  1.2  762  306  +0.5         
12 12.11.18 140 (ЮВ) 4{10}  10 км    9/9 800 м 
[Sc]
+1.1 -0.8 87 -1  1035.6  0.1  762  306           
15 12.11.18 140 (ЮВ) 10 км    9/9 800 м 
[Sc]
+0.6 -1.6 85 -1  1036.4  0.8  762  307           
18 12.11.18 150 (ЮВ) 4{10}  10 км    9/9 800 м 
[Sc]
-0.7 -2.9 85 -3  1036.3  -0.2  762  308    +1.1       
21 12.11.18 150 (ЮВ) 5{11}  10 км    8/8 840 м 
[Sc]
-1 -3.5 83 -4  1036.4  0.1  762  309           
00 13.11.18 150 (ЮВ) 5{10}  10 км    8/8 840 м 
[Sc]
-0.8 -3.8 80 -4  1036.5  0.1  762  309           
03 13.11.18 160 (Ю) 4{10}  10 км    9/9 840 м 
[Sc]
-1.2 -4 81 -4  1035.8  -0.7  762  309           
06 13.11.18 150 (ЮВ) 10 км    9/9 840 м 
[Sc]
-1.7 -4.2 83 -5  1035.3  -0.6  761  309  -1.7         
09 13.11.18 150 (ЮВ) 10 км    9/9 900 м 
[Sc]
-0.4 -3.6 79 -3  1034.5  -0.6  761  308           
12 13.11.18 160 (Ю) 4{10}  10 км    9/9 900 м 
[Sc]
+1.8 -2.7 72 1032.5  -1.8  760  304           
18 13.11.18 160 (Ю) 5-10{12}  10 км    9/9 900 м 
[Sc]
+0.2 -4.4 71 -3  1029.5  -1.6  757  305    +2.1       
00 14.11.18 160 (Ю) 5-10{11}  10 км    9/9 900 м 
[Sc]
-0.9 -4.8 75 -4  1024.6  -2.6  754  305           
06 14.11.18 160 (Ю) 4000 м  слаб. ливневой снег [диам. гололёда 1 мм]  10/10 400 м кучево-дожд. 
[Cb cap]
-1.8 -2.5 95 -4  1021.3  -1.6  751  305  -1.8    равномерный
сухой снег
100% 
12 14.11.18 150 (ЮВ) 4000 м  в посл. час снег{ливн. осадки} [диам. гололёда 1 мм]  10/10 400 м 
[Frnb]
-0.9 -1.2 98 -2  1019.9  -0.5  750  303           
18 14.11.18 тихо ()   4000 м  слаб. ливневой снег  10/10 400 м кучево-дожд. 
[Cb cap]
-1.5 -1.6 99 -2  1022.3  1.3  752  305    +0.1   
21 14.11.18 040 (СВ) 4000 м  дымка{ливн. осадки}  9/9 700 м кучево-дожд. 
[Cb calv]
-1.6 -2.1 96 -1  1023.8  1.5  753  305           
00 15.11.18 020 (С) 4000 м  слаб. ливневой снег  10/10 400 м кучево-дожд. 
[Cb cap]
-1.8 -2 99 -1  1025.5  1.6  754  306           
03 15.11.18 040 (СВ) 4000 м  дымка{ливн. осадки}  9/9 700 м кучево-дожд. 
[Cb calv]
-1.8 -2 99 -3  1027  1.5  755  307       
06 15.11.18 010 (С) 4000 м  дымка{ливн. осадки}  9/9 800 м 
[Sc]
-1.6 -2.1 96 -3  1029.5  2.5  757  307  -1.9    равномерный
сухой снег
100% 
09 15.11.18 070 (В) 4000 м  дымка  9/9 800 м 
[Sc]
-0.5 -0.8 98 -1  1031.4  1.9  759  306           
12 15.11.18 040 (СВ) 4000 м  дымка  9/9 800 м 
[Sc]
+0.2 -0.1 98 -1  1033.3  1.9  760  306           
15 15.11.18 040 (СВ) 4000 м  дымка  10/10 400 м 
[Frnb]
+0.3 +0 98 +1  1035.3  762  307           
18 15.11.18 050 (СВ) 4000 м  дымка  10/10 400 м 
[Frnb]
+0.4 +0.1 98 +1  1037  1.7  763  307    +0.4     
Время (UTC), дата Ветер
(°,м/с) 
Видим.   Явления Облачность Т
(°С)
Тd
(°С)
f(%) Тe
(°С)
Pmin
(гПа)
dP
(гПа)
Po
(мм)
O2
(г/м3)
Тmin Tmax R s Состояние
почвы

Для получения пояснительной информации подведите курсор к названию столбца.

ПОГОДА в Кличеве - архив

Всё, что Вы хотите узнать о погоде в Кличеве - удобно и подробно!

Выберите нужную дату (начиная с 1 января 2015* года) и нажмите кнопку "Найти".
Будут отображены архивные сводки погоды по пункту Кличев, начиная с указанной даты.


Отображать данные в формате CSV (для использования в таблицах Excel)


Внимание! Наш архив погоды предназначен исключительно для личного некоммерческого использования в познавательных целях. Если Вам необходимы официальные справки о состоянии погоды (для производственных, юридических, коммерческих и т.п. целей), обращайтесь в органы Росгидромета.

*Примечание: данная дата относится к архиву по метеостанциям СССР (Россия, СНГ, Балтия).
Архив по метеостанциям Зарубежной Европы и Азии (кроме Китая) хранится 10 дней, по другим регионам земного шара (Китай, Африка, Америка, Австралия, Океания) - 1 день.

Кличев - район местоположения метеостанции


Название, широта, долгота, высота метеостанции:
Кличев 53.5°ш. 29.3°д. 155 м над ур. моря [Беларусь]

Дополнительная информация

В oтличие oт бoльшинства пoгoдных сайтoв мы публикуем пoдрoбную метеoинфoрмацию в детальнoм прoфессиoнальнoм фoрмате.

Характеристики температуры и влажнoсти вoздуха измеряются на высoте 2 м в тени вдали oт зданий и деревьев.
Скoрoсть ветра измеряется на высoте 10 м (на урoвне рoста челoвека скoрoсть ветра ниже в 1.5-2 раза). Если метеoстанция нахoдится в гoрoде или в лесу, тo скoрoсть ветра занижена на 2-4 м/с пo сравнению с oткрытым местoм. Скoрoсть ветра над акватoриями крупных рек и oзёр, а также на вершинах хoлмoв на 2-5 м/с выше, чем в oбычных услoвиях.
Атмoсфернoе давление в разных тoчках местнoсти мoжет значительнo oтличаться oт давления на метеoстанции, в зависимoсти oт услoвий рельефа (при пoдъёме на 10 м давление пoнижается примернo на 1 мм рт.ст.).